Tracking 32136 objects as of 12-Nov-2025
HD Live streaming from Space Station
objects crossing your sky now

BS-3B (YURI 3B)

Track BS-3B (YURI 3B) now!
BS-3B (YURI 3B) is classified as:


NORAD ID: 21668
Int'l Code: 1991-060A
Perigee: 36,183.2 km
Apogee: 36,244.0 km
Inclination: 13.4 °
Period: 1,457.6 minutes
Semi major axis: 42584 km
RCS: 1.6 m2 (large)
Launch date: August 25, 1991
Source: Japan (JPN)
Launch site: TANEGASHIMA SPACE CENTER (TNSTA)
Your satellite tracking list
Your tracking list is empty




NASA's NSSDC Master Catalog

Two Line Element Set (TLE):
1 21668U 91060A   25314.55336720 -.00000214  00000-0  00000-0 0  9993
2 21668  13.3917 358.4000 0007139 205.2228 168.6581  0.98792426127158
Source of the keplerian elements: AFSPC